Weather History for Juneau, WI

Change the Weather History Date:

Monday, July 8, 2013

  Actual Average Record
Temperature  
Mean Temperature 77 °F -  
Max Temperature 83 °F 77 °F 98 °F (1973)
Min Temperature 71 °F 59 °F 35 °F (2006)
Cooling Degree Days 12    
Growing Degree Days 27 (Base 50)    
Moisture  
Dew Point 56 °F    
Average Humidity 50    
Maximum Humidity 60    
Minimum Humidity 38    
Precipitation  
Precipitation 0.67 in - - ()
Sea Level Pressure  
Sea Level Pressure 29.96 in    
Wind  
Wind Speed 7 mph (SSW)    
Max Wind Speed 15 mph    
Max Gust Speed -    
Visibility 9 miles    
Events Rain , Thunderstorm    
Averages and records for this station are not official NWS values.
T = Trace of Precipitation, MM = Missing Value Source: NWS Daily Summary

Daily Weather History Graph

Daily Weather History Graph

Search for Another Location

Airport:

Trip Planner

Search our weather history database for the weather conditions in past years. The results will help you decide how hot, cold, wet, or windy it might be!

Date:

Astronomy

Jul. 08, 2013 Rise Set
Actual Time 5:22 AM CDT 8:37 PM CDT
Civil Twilight 4:47 AM CDT 9:12 PM CDT
Nautical Twilight 4:02 AM CDT 9:57 PM CDT
Astronomical Twilight 3:06 AM CDT 10:52 PM CDT
Moon 5:54 AM CDT (7/8) 8:35 PM CDT (7/8)
Length of Visible Light 16h 24m
Length of Day
15h 14m
New Moon, 0% of the Moon is Illuminated
Jul 8
New Moon
Jul 15
First Quarter
Jul 22
Full
Jul 29
Last Quarter
Aug 6
New

Hourly Weather History & Observations

Time (CDT) Temp. Heat Index Dew Point Humidity Pressure Visibility Wind Dir Wind Speed Gust Speed Precip Events Conditions
12:15 AM 74.5 °F - 53.6 °F 48% 29.97 in 10.0 mi South 5.8 mph - N/A   Mostly Cloudy
12:35 AM 75.2 °F - 53.2 °F 46% 29.97 in 10.0 mi South 8.1 mph - N/A   Scattered Clouds
12:55 AM 75.2 °F - 53.2 °F 46% 29.96 in 10.0 mi South 8.1 mph - N/A   Clear
1:15 AM 75.2 °F - 53.6 °F 47% 29.96 in 10.0 mi South 10.4 mph - N/A   Clear
1:35 AM 75.4 °F - 53.6 °F 47% 29.95 in 10.0 mi South 9.2 mph - N/A   Clear
1:55 AM 75.2 °F - 53.6 °F 47% 29.95 in 10.0 mi South 6.9 mph - N/A   Clear
2:15 AM 74.8 °F - 53.6 °F 47% 29.94 in 10.0 mi South 6.9 mph - N/A   Clear
2:35 AM 74.5 °F - 53.6 °F 48% 29.94 in 10.0 mi South 6.9 mph - N/A   Clear
2:55 AM 74.5 °F - 53.6 °F 48% 29.94 in 10.0 mi South 8.1 mph - N/A   Clear
3:15 AM 74.5 °F - 53.6 °F 48% 29.93 in 10.0 mi South 9.2 mph - N/A   Clear
3:35 AM 74.7 °F - 53.2 °F 47% 29.92 in 10.0 mi South 9.2 mph - N/A   Clear
3:55 AM 74.7 °F - 53.2 °F 47% 29.92 in 10.0 mi South 8.1 mph - N/A   Clear
4:15 AM 74.5 °F - 53.2 °F 47% 29.92 in 10.0 mi South 9.2 mph - N/A   Scattered Clouds
4:35 AM 74.5 °F - 53.1 °F 47% 29.92 in 10.0 mi SSW 10.4 mph - N/A   Scattered Clouds
4:55 AM 74.7 °F - 53.1 °F 47% 29.92 in 10.0 mi SSW 12.7 mph - N/A Thunderstorm Scattered Clouds
5:15 AM 74.5 °F - 52.7 °F 46% 29.93 in 10.0 mi SW 12.7 mph - N/A   Scattered Clouds
5:55 AM 71.6 °F - 54.7 °F 55% 29.94 in 7.0 mi SSW 15.0 mph - 0.01 in Rain Rain
6:15 AM 71.1 °F - 55.9 °F 59% 29.95 in 5.0 mi SW 13.8 mph - 0.02 in Rain Light Rain
6:35 AM 71.2 °F - 56.7 °F 60% 29.95 in 7.0 mi SSW 15.0 mph - 0.03 in Rain Light Rain
6:55 AM 71.4 °F - 56.3 °F 59% 29.94 in 10.0 mi SSW 10.4 mph - 0.05 in Rain Light Rain
7:15 AM 71.2 °F - 56.5 °F 60% 29.96 in 7.0 mi SW 6.9 mph - 0.01 in Rain Rain
7:35 AM 71.2 °F - 56.7 °F 60% 29.97 in 5.0 mi SW 3.5 mph - 0.03 in Rain Light Rain
7:55 AM 71.1 °F - 56.5 °F 60% 29.97 in 7.0 mi South 4.6 mph - 0.04 in Rain Light Rain
8:15 AM 71.2 °F - 56.5 °F 60% 29.98 in 10.0 mi Calm Calm - N/A   Overcast
8:35 AM 71.6 °F - 56.3 °F 58% 29.98 in 10.0 mi Calm Calm - 0.01 in Rain Rain
8:55 AM 71.6 °F - 56.7 °F 59% 29.98 in 3.0 mi SE 3.5 mph - 0.05 in Rain Rain
9:15 AM 71.2 °F - 56.8 °F 60% 29.97 in 4.0 mi South 6.9 mph - 0.03 in Rain Light Rain
9:35 AM 71.6 °F - 57.2 °F 60% 29.97 in 7.0 mi South 6.9 mph - 0.03 in   Scattered Clouds
9:55 AM 73.6 °F - 57.7 °F 58% 29.97 in 10.0 mi South 8.1 mph - 0.03 in   Scattered Clouds
10:15 AM 74.5 °F - 57.0 °F 54% 29.97 in 10.0 mi SSW 11.5 mph - N/A   Mostly Cloudy
10:35 AM 75.4 °F - 57.2 °F 53% 29.96 in 10.0 mi SSW 11.5 mph - N/A   Overcast
10:55 AM 76.6 °F - 55.9 °F 49% 29.97 in 10.0 mi SW 15.0 mph - N/A   Overcast
11:15 AM 76.6 °F - 55.9 °F 49% 29.96 in 10.0 mi SW 11.5 mph - N/A   Overcast
11:35 AM 76.6 °F - 55.6 °F 48% 29.96 in 10.0 mi SW 11.5 mph - N/A   Overcast
11:55 AM 76.8 °F - 55.6 °F 48% 29.95 in 10.0 mi SW 9.2 mph - N/A   Overcast
12:15 PM 78.8 °F - 57.2 °F 47% 29.95 in 10.0 mi SW 8.1 mph - N/A   Overcast
12:35 PM 79.7 °F - 55.9 °F 44% 29.95 in 10.0 mi WSW 11.5 mph - N/A   Overcast
12:55 PM 79.7 °F - 56.5 °F 45% 29.95 in 10.0 mi WSW 9.2 mph - N/A   Overcast
1:15 PM 79.7 °F - 56.5 °F 45% 29.94 in 10.0 mi WSW 8.1 mph - N/A   Overcast
1:35 PM 79.0 °F - 56.5 °F 46% 29.95 in 10.0 mi WSW 6.9 mph - N/A   Overcast
1:55 PM 80.1 °F 80.3 °F 56.3 °F 44% 29.95 in 10.0 mi WSW 8.1 mph - N/A   Overcast
2:15 PM 79.7 °F - 56.5 °F 45% 29.95 in 10.0 mi West 5.8 mph - N/A   Overcast
2:35 PM 81.1 °F 81.2 °F 57.0 °F 44% 29.95 in 10.0 mi WSW 9.2 mph - N/A   Mostly Cloudy
2:55 PM 80.4 °F 80.6 °F 56.7 °F 44% 29.96 in 10.0 mi WSW 8.1 mph - N/A   Mostly Cloudy
3:15 PM 80.6 °F 80.8 °F 57.4 °F 45% 29.95 in 10.0 mi West 5.8 mph - N/A   Scattered Clouds
3:35 PM 82.6 °F 82.1 °F 56.7 °F 41% 29.95 in 10.0 mi West 5.8 mph - N/A   Scattered Clouds
3:55 PM 83.3 °F 82.5 °F 55.9 °F 39% 29.95 in 10.0 mi WSW 6.9 mph - N/A   Scattered Clouds
4:15 PM 83.5 °F 82.5 °F 55.2 °F 38% 29.95 in 10.0 mi WNW 4.6 mph - N/A   Scattered Clouds
4:35 PM 83.8 °F 82.8 °F 55.4 °F 38% 29.95 in 10.0 mi WSW 5.8 mph - N/A   Scattered Clouds
4:55 PM 82.9 °F 82.1 °F 55.8 °F 39% 29.95 in 10.0 mi WNW 3.5 mph - N/A   Clear
5:15 PM 83.5 °F 82.6 °F 56.3 °F 39% 29.95 in 10.0 mi NNE 6.9 mph - N/A   Mostly Cloudy
5:35 PM 78.1 °F - 56.3 °F 47% 29.96 in 7.0 mi North 8.1 mph - 0.04 in Rain Heavy Rain
5:55 PM 73.6 °F - 56.5 °F 55% 29.97 in 0.8 mi Calm Calm - 0.47 in Rain Heavy Rain
6:15 PM 77.7 °F - 57.4 °F 49% 29.96 in 10.0 mi Calm Calm - 0.02 in Thunderstorm Thunderstorm
6:35 PM 76.8 °F - 59.0 °F 54% 29.96 in 10.0 mi Calm Calm - 0.02 in   Scattered Clouds
6:55 PM 77.9 °F - 58.1 °F 50% 29.97 in 10.0 mi Calm Calm - 0.02 in   Scattered Clouds
7:15 PM 78.1 °F - 59.7 °F 53% 29.97 in 10.0 mi Calm Calm - N/A   Scattered Clouds
7:35 PM 79.2 °F - 58.8 °F 50% 29.97 in 10.0 mi Calm Calm - N/A   Scattered Clouds
7:55 PM 78.6 °F - 59.2 °F 51% 29.98 in 10.0 mi Calm Calm - N/A   Clear
8:15 PM 77.4 °F - 60.1 °F 55% 29.98 in 10.0 mi Calm Calm - N/A   Clear
8:35 PM 77.2 °F - 58.1 °F 52% 29.98 in 10.0 mi NNE 3.5 mph - N/A   Scattered Clouds
8:55 PM 77.0 °F - 57.2 °F 50% 29.98 in 10.0 mi NNE 5.8 mph - N/A   Mostly Cloudy
9:15 PM 75.4 °F - 57.2 °F 53% 30.00 in 10.0 mi ENE 6.9 mph - N/A   Scattered Clouds
9:35 PM 74.5 °F - 57.0 °F 54% 30.01 in 10.0 mi ENE 5.8 mph - N/A   Scattered Clouds
9:55 PM 73.6 °F - 56.5 °F 55% 30.01 in 10.0 mi ENE 5.8 mph - N/A   Mostly Cloudy
10:15 PM 73.4 °F - 56.3 °F 55% 30.01 in 10.0 mi ENE 4.6 mph - N/A   Overcast
10:35 PM 72.5 °F - 55.8 °F 56% 30.01 in 10.0 mi East 5.8 mph - N/A   Mostly Cloudy
10:55 PM 72.0 °F - 55.8 °F 57% 30.01 in 7.0 mi ENE 5.8 mph - N/A   Scattered Clouds
11:15 PM 71.8 °F - 54.9 °F 55% 30.01 in 7.0 mi East 3.5 mph - N/A   Mostly Cloudy
11:35 PM 71.6 °F - 54.9 °F 55% 30.01 in 7.0 mi East 4.6 mph - N/A   Overcast
11:55 PM 71.2 °F - 55.4 °F 57% 30.02 in 5.0 mi Calm Calm - N/A   Haze